Location: La Trinit�
(48.1620°N, 3.4512°W)
Time: 03:58:07
(UTC+00:00)

SOZ - Pass Details

Date: 08 May 2021
Orbit: 307 x 16715 km, 52.0° (Epoch: 13 June)

Event Time Altitude Azimuth Distance (km) Brightness Sun altitude
Rises 20:50:30 0° 247° (WSW) 3,169 9.6 -10.8°
Reaches altitude 10° 20:53:28 10° 249° (WSW) 1,608 8.0 -11.2°
Maximum altitude 20:56:19 82° 338° (NNW) 332 4.3 -11.5°
Drops below altitude 10° 20:58:28 10° 66° (ENE) 1,213 6.9 -11.8°
Enters shadow 21:00:08 - 67° (ENE) 2,108 8.1 -12.0°
